Time,TemperatureF,DewpointF,PressureIn,WindDirection,WindDirectionDegrees,WindSpeedMPH,WindSpeedGustMPH,Humidity,HourlyPrecipIn,Conditions,Clouds,dailyrainin,SoftwareType,DateUTC
2013-04-09 12:35:00,47.7,45.5,29.92,East,90,2.2,-999.0,92,-99.99,,,0.07,Acu-Link.com,2013-04-09 16:35:00,
2013-04-09 12:50:00,47.8,45.9,29.92,East,90,0.0,-999.0,93,-99.99,,,0.09,Acu-Link.com,2013-04-09 16:50:00,
2013-04-09 13:06:00,47.5,45.9,29.93,SSE,157,1.1,-999.0,94,-99.99,,,0.12,Acu-Link.com,2013-04-09 17:06:00,
2013-04-09 13:21:00,46.8,45.7,29.96,NNW,337,2.2,-999.0,96,-99.99,,,0.18,Acu-Link.com,2013-04-09 17:21:00,
2013-04-09 14:06:00,45.7,45.2,29.88,ESE,112,3.2,-999.0,98,-99.99,,,0.55,Acu-Link.com,2013-04-09 18:06:00,
2013-04-09 14:21:00,45.1,44.6,29.88,South,180,1.7,-999.0,98,-99.99,,,0.63,Acu-Link.com,2013-04-09 18:21:00,
2013-04-09 14:36:00,45.1,44.6,29.87,SW,225,2.2,-999.0,98,-99.99,,,0.68,Acu-Link.com,2013-04-09 18:36:00,
2013-04-09 14:51:00,44.8,44.5,29.88,NNE,22,3.7,-999.0,99,-99.99,,,0.80,Acu-Link.com,2013-04-09 18:51:00,
2013-04-09 15:06:00,44.6,44.3,29.87,ENE,67,3.7,-999.0,99,-99.99,,,0.82,Acu-Link.com,2013-04-09 19:06:00,
2013-04-09 15:22:00,44.2,43.9,29.88,ENE,67,5.3,-999.0,99,-99.99,,,0.94,Acu-Link.com,2013-04-09 19:22:00,
2013-04-09 15:37:00,44.1,43.8,29.86,ESE,112,4.2,-999.0,99,-99.99,,,1.06,Acu-Link.com,2013-04-09 19:37:00,
2013-04-09 15:52:00,43.9,43.6,29.85,East,90,2.7,-999.0,99,-99.99,,,1.32,Acu-Link.com,2013-04-09 19:52:00,
2013-04-09 16:07:00,43.9,43.6,29.85,East,90,2.2,-999.0,99,-99.99,,,1.33,Acu-Link.com,2013-04-09 20:07:00,
2013-04-09 16:22:00,43.9,43.6,29.82,SE,135,2.7,-999.0,99,-99.99,,,1.46,Acu-Link.com,2013-04-09 20:22:00,
2013-04-09 16:37:00,44.1,43.8,29.82,SE,135,4.2,-999.0,99,-99.99,,,1.55,Acu-Link.com,2013-04-09 20:37:00,
2013-04-09 16:52:00,44.6,44.3,29.81,ESE,112,5.3,-999.0,99,-99.99,,,1.55,Acu-Link.com,2013-04-09 20:52:00,
2013-04-09 17:07:00,45.1,44.8,29.82,East,90,1.1,-999.0,99,-99.99,,,1.55,Acu-Link.com,2013-04-09 21:07:00,
2013-04-09 17:22:00,45.7,45.4,29.81,SE,135,2.2,-999.0,99,-99.99,,,1.55,Acu-Link.com,2013-04-09 21:22:00,
2013-04-09 17:38:00,45.7,45.4,29.82,South,180,1.1,-999.0,99,-99.99,,,1.55,Acu-Link.com,2013-04-09 21:38:00,
2013-04-09 17:53:00,45.7,45.4,29.82,NE,45,1.7,-999.0,99,-99.99,,,1.55,Acu-Link.com,2013-04-09 21:53:00,
2013-04-09 18:08:00,45.5,45.2,29.83,East,90,1.7,-999.0,99,-99.99,,,1.58,Acu-Link.com,2013-04-09 22:08:00,
2013-04-09 18:23:00,45.0,44.7,29.84,NNE,22,4.7,-999.0,99,-99.99,,,1.68,Acu-Link.com,2013-04-09 22:23:00,
2013-04-09 18:38:00,44.8,44.5,29.82,ESE,112,1.7,-999.0,99,-99.99,,,1.70,Acu-Link.com,2013-04-09 22:38:00,
2013-04-09 18:53:00,44.8,44.5,29.82,East,90,0.0,-999.0,99,-99.99,,,1.70,Acu-Link.com,2013-04-09 22:53:00,
2013-04-09 19:09:00,44.8,44.5,29.83,ESE,112,0.0,-999.0,99,-99.99,,,1.70,Acu-Link.com,2013-04-09 23:09:00,
2013-04-09 19:24:00,44.8,44.5,29.84,NNW,337,2.7,-999.0,99,-99.99,,,1.70,Acu-Link.com,2013-04-09 23:24:00,
2013-04-09 19:39:00,44.8,44.5,29.85,NE,45,4.7,-999.0,99,-99.99,,,1.70,Acu-Link.com,2013-04-09 23:39:00,
2013-04-09 19:55:00,44.2,43.9,29.85,NNW,337,4.7,-999.0,99,-99.99,,,1.70,Acu-Link.com,2013-04-09 23:55:00,
2013-04-09 20:10:00,43.5,43.2,29.84,WNW,292,8.3,-999.0,99,-99.99,,,1.70,Acu-Link.com,2013-04-10 00:10:00,
2013-04-09 20:25:00,42.8,42.5,29.85,East,90,4.7,-999.0,99,-99.99,,,1.71,Acu-Link.com,2013-04-10 00:25:00,
2013-04-09 20:40:00,42.4,42.1,29.86,NNW,337,6.8,-999.0,99,-99.99,,,1.71,Acu-Link.com,2013-04-10 00:40:00,
2013-04-09 20:55:00,41.7,41.4,29.86,NE,45,3.7,-999.0,99,-99.99,,,1.72,Acu-Link.com,2013-04-10 00:55:00,
2013-04-09 21:10:00,41.7,41.4,29.85,NE,45,2.7,-999.0,99,-99.99,,,1.73,Acu-Link.com,2013-04-10 01:10:00,
2013-04-09 21:25:00,41.4,41.1,29.87,ESE,112,4.7,-999.0,99,-99.99,,,1.73,Acu-Link.com,2013-04-10 01:25:00,
2013-04-09 21:40:00,41.2,40.9,29.88,ESE,112,5.3,-999.0,99,-99.99,,,1.73,Acu-Link.com,2013-04-10 01:40:00,
2013-04-09 21:55:00,41.0,40.7,29.90,ESE,112,2.7,-999.0,99,-99.99,,,1.73,Acu-Link.com,2013-04-10 01:55:00,
2013-04-09 22:10:00,41.0,40.7,29.90,NE,45,2.7,-999.0,99,-99.99,,,1.73,Acu-Link.com,2013-04-10 02:10:00,
2013-04-09 22:26:00,40.8,40.5,29.89,NNE,22,2.7,-999.0,99,-99.99,,,1.75,Acu-Link.com,2013-04-10 02:26:00,
2013-04-09 22:56:00,40.5,40.2,29.91,North,0,2.7,-999.0,99,-99.99,,,1.89,Acu-Link.com,2013-04-10 02:56:00,
2013-04-09 23:26:00,40.1,39.8,29.91,NNE,22,5.3,-999.0,99,-99.99,,,2.05,Acu-Link.com,2013-04-10 03:26:00,
2013-04-09 23:41:00,39.0,38.7,29.90,NE,45,7.3,-999.0,99,-99.99,,,2.14,Acu-Link.com,2013-04-10 03:41:00,
2013-04-09 23:56:00,38.7,38.4,29.90,North,0,4.2,-999.0,99,-99.99,,,2.14,Acu-Link.com,2013-04-10 03:56:00,